EW1955 Weather Reports


time (UTC)temp
C
wind
direction
speed
KPH
gust
KPH
rain 1hr
cm
rain 24hr
cm
rain mn
cm
humidity
%
barometer
mb
20260905173104 31 0 1.6 11.3 0.00 0.00 0.00 63 1014.7
20260905173026 -17 0.0 0.0 0.00 0.00 0.00 1013.4
20260905171604 30 195 4.8 11.3 0.00 0.00 0.00 61 1014.8
20260905171521 -17 0.0 0.0 0.00 0.00 0.00 1013.6
20260905170101 30 176 3.2 12.9 0.00 0.00 0.00 62 1015.1
20260905170016 -17 0.0 0.0 0.00 0.00 0.00 1013.9
20260905164610 29 230 3.2 11.3 0.00 0.00 0.00 63 1015.4
20260905164517 -17 0.0 0.0 0.00 0.00 0.00 1014.1
20260905163107 29 300 3.2 19.3 0.00 0.00 0.00 63 1015.5
20260905163014 -17 0.0 0.0 0.00 0.00 0.00 1014.3
20260905161606 28 176 4.8 11.3 0.00 0.00 0.00 63 1015.5
20260905161512 -17 0.0 0.0 0.00 0.00 0.00 1014.2
20260905160101 28 189 3.2 16.1 0.00 0.00 0.00 66 1015.3
20260905160017 -17 0.0 0.0 0.00 0.00 0.00 1014.1
20260905154619 27 221 1.6 14.5 0.00 0.00 0.00 66 1015.4
20260905154511 -17 0.0 0.0 0.00 0.00 0.00 1014.1
20260905153104 27 233 1.6 19.3 0.00 0.00 0.00 68 1015.5
20260905153007 -17 0.0 0.0 0.00 0.00 0.00 1014.4
20260905151605 26 0 3.2 14.5 0.00 0.00 0.00 71 1015.8
20260905151512 -17 0.0 0.0 0.00 0.00 0.00 1014.5
20260905150104 26 228 4.8 14.5 0.00 0.00 0.00 69 1015.7
20260905150009 -17 0.0 0.0 0.00 0.00 0.00 1014.5
20260905144603 26 251 3.2 16.1 0.00 0.00 0.00 70 1015.8
20260905144521 -17 0.0 0.0 0.00 0.00 0.00 1014.7
20260905143105 25 237 8.0 16.1 0.00 0.00 0.00 71 1016.0
20260905143012 -17 0.0 0.0 0.00 0.00 0.00 1014.7
20260905141603 25 165 3.2 14.5 0.00 0.00 0.00 73 1015.9
20260905141511 -17 0.0 0.0 0.00 0.00 0.00 1014.8
20260905140106 24 201 3.2 16.1 0.00 0.00 0.00 75 1016.0
20260905140011 -17 0.0 0.0 0.00 0.00 0.00 1014.9
20260905134601 23 201 3.2 14.5 0.00 0.00 0.00 79 1016.0
20260905134506 -17 0.0 0.0 0.00 0.00 0.00 1014.8
20260905133056 22 0 0.0 8.0 0.00 0.00 0.00 82 1015.9
20260905133006 -17 0.0 0.0 0.00 0.00 0.00 1014.7
20260905131609 22 232 4.8 12.9 0.00 0.00 0.00 82 1016.1
20260905131504 -17 0.0 0.0 0.00 0.00 0.00 1014.9
20260905130004 -17 0.0 0.0 0.00 0.00 0.00 1015.1
20260905124611 22 0 0.0 4.8 0.00 0.00 0.00 85 1016.3
20260905124520 -17 0.0 0.0 0.00 0.00 0.00 1015.1
20260905123108 22 0 0.0 6.4 0.00 0.00 0.00 85 1016.2
20260905123005 -17 0.0 0.0 0.00 0.00 0.00 1015.0
20260905121605 22 229 0.0 4.8 0.00 0.00 0.00 86 1016.4
20260905121501 -17 0.0 0.0 0.00 0.00 0.00 1015.0
20260905120105 21 345 0.0 6.4 0.00 0.00 0.00 86 1016.3
20260905120100 -17 0.0 0.0 0.00 0.00 0.00 1015.2
20260905114602 22 227 1.6 11.3 0.00 0.00 0.00 87 1016.0
20260905113108 22 0 1.6 6.4 0.00 0.00 0.00 91 1015.5
20260905113047 -17 0.0 0.0 0.00 0.00 0.00 1014.3
20260905111610 23 164 3.2 14.5 0.00 0.00 0.00 93 1015.5
20260905111545 -17 0.0 0.0 0.00 0.00 0.00 1014.2
20260905110041 -17 0.0 0.0 0.00 0.00 0.00 1013.1
20260905104614 23 0 0.0 0.0 0.00 0.00 0.00 93 1014.2
20260905103105 23 0 0.0 0.0 0.00 0.00 0.00 93 1014.3
20260905103032 -17 0.0 0.0 0.00 0.00 0.00 1013.0
20260905101603 23 0 0.0 0.0 0.00 0.00 0.00 93 1014.3
20260905101524 -17 0.0 0.0 0.00 0.00 0.00 1013.0
20260905100111 23 0 0.0 0.0 0.00 0.00 0.00 93 1014.2
20260905100022 -17 0.0 0.0 0.00 0.00 0.00 1013.0
20260905094604 23 0 0.0 3.2 0.00 0.00 0.00 93 1014.2
20260905093105 23 0 0.0 3.2 0.00 0.00 0.00 92 1014.1
20260905093016 -17 0.0 0.0 0.00 0.00 0.00 1012.9
20260905091637 23 0 0.0 0.0 0.00 0.00 0.00 92 1014.3
20260905091510 -17 0.0 0.0 0.00 0.00 0.00 1013.1
20260905090105 23 0 0.0 0.0 0.00 0.00 0.00 92 1014.3
20260905090006 -17 0.0 0.0 0.00 0.00 0.00 1013.1
20260905084613 23 0 0.0 0.0 0.00 0.00 0.00 92 1014.1
20260905083103 24 0 0.0 0.0 0.00 0.00 0.00 92 1013.7
20260905083059 -17 0.0 0.0 0.00 0.00 0.00 1012.5
20260905081605 24 0 0.0 0.0 0.00 0.00 0.00 92 1013.6
20260905081601 -17 0.0 0.0 0.00 0.00 0.00 1012.4
20260905080109 24 0 0.0 0.0 0.00 0.00 0.00 93 1013.5
20260905080056 -17 0.0 0.0 0.00 0.00 0.00 1012.3
20260905074631 24 0 0.0 1.6 0.00 0.00 0.00 93 1013.5
20260905073111 24 215 0.0 1.6 0.00 0.00 0.00 93 1013.3
20260905073046 -17 0.0 0.0 0.00 0.00 0.00 1012.1
20260905071613 24 0 0.0 0.0 0.00 0.00 0.00 92 1013.5
20260905071541 -17 0.0 0.0 0.00 0.00 0.00 1012.2
20260905070114 24 0 0.0 0.0 0.00 0.00 0.00 92 1013.7
20260905070037 -17 0.0 0.0 0.00 0.00 0.00 1012.5
20260905063102 24 0 0.0 0.0 0.00 0.00 0.00 92 1014.2
20260905063035 -17 0.0 0.0 0.00 0.00 0.00 1012.9
20260905061616 24 0 0.0 0.0 0.00 0.00 0.00 92 1014.3
20260905061531 -17 0.0 0.0 0.00 0.00 0.00 1013.1
20260905060057 24 0 0.0 0.0 0.00 0.00 0.00 92 1014.4
20260905060038 -17 0.0 0.0 0.00 0.00 0.00 1013.3
20260905054607 24 0 0.0 0.0 0.00 0.00 0.00 92 1014.5
20260905053104 24 0 0.0 0.0 0.00 0.00 0.00 92 1014.7
20260905053018 -17 0.0 0.0 0.00 0.00 0.00 1013.5
20260905051601 25 0 0.0 0.0 0.00 0.00 0.00 91 1014.8
20260905051524 -17 0.0 0.0 0.00 0.00 0.00 1013.5
20260905050104 25 0 0.0 0.0 0.00 0.00 0.00 91 1014.8
20260905050009 -17 0.0 0.0 0.00 0.00 0.00 1013.6
20260905044607 25 0 0.0 0.0 0.00 0.00 0.00 91 1014.8
20260905043103 25 0 0.0 0.0 0.00 0.00 0.00 91 1014.9
20260905041607 25 0 0.0 0.0 0.00 0.00 0.00 91 1015.1
20260905041557 -17 0.0 0.0 0.00 0.00 0.00 1013.8
20260905040100 25 0 0.0 0.0 0.00 0.00 0.00 91 1015.1
20260905040054 -17 0.0 0.0 0.00 0.00 0.00 1013.8
20260905034606 25 0 0.0 0.0 0.00 0.00 0.00 91 1015.0
20260905033103 25 0 0.0 0.0 0.00 0.00 0.00 90 1015.1
20260905033044 -17 0.0 0.0 0.00 0.00 0.00 1013.9
20260905031601 25 0 0.0 0.0 0.00 0.00 0.00 90 1015.2
20260905031547 -17 0.0 0.0 0.00 0.00 0.00 1014.0
20260905030108 25 0 0.0 0.0 0.00 0.00 0.00 89 1015.0
20260905030035 -17 0.0 0.0 0.00 0.00 0.00 1013.8
20260905024605 26 0 0.0 0.0 0.00 0.00 0.00 89 1014.8
20260905023105 26 0 0.0 0.0 0.00 0.00 0.00 88 1014.8
20260905023031 -17 0.0 0.0 0.00 0.00 0.00 1013.5
20260905021605 26 0 0.0 0.0 0.00 0.00 0.00 88 1015.0
20260905021523 -17 0.0 0.0 0.00 0.00 0.00 1013.7
20260905020019 -17 0.0 0.0 0.00 0.00 0.00 1013.6
20260905014606 26 0 0.0 0.0 0.00 0.00 0.00 88 1014.5
20260905013104 26 0 0.0 0.0 0.00 0.00 0.00 87 1014.5
20260905013015 -17 0.0 0.0 0.00 0.00 0.00 1013.4
20260905011609 26 0 0.0 0.0 0.00 0.00 0.00 86 1014.5
20260905011515 -17 0.0 0.0 0.00 0.00 0.00 1013.3
20260905010111 27 0 0.0 0.0 0.00 0.00 0.00 85 1014.4
20260905010006 -17 0.0 0.0 0.00 0.00 0.00 1013.2
20260905004608 27 0 0.0 0.0 0.00 0.00 0.00 84 1014.3
20260905003106 27 0 0.0 0.0 0.00 0.00 0.00 83 1014.2
20260905003004 -17 0.0 0.0 0.00 0.00 0.00 1013.0
20260905001602 27 0 0.0 0.0 0.00 0.00 0.00 83 1014.4
20260905001600 -17 0.0 0.0 0.00 0.00 0.00 1013.2
20260905000104 -17 0.0 0.0 0.00 0.00 0.00 1013.1
20260905000100 28 0 0.0 0.0 0.00 0.00 0.00 82 1014.3
20260904234651 -17 0.0 0.0 0.00 0.00 0.00 1013.1
20260904234606 29 0 0.0 0.0 0.00 0.00 0.00 79 1014.3
20260904233104 31 0 0.0 0.0 0.00 0.00 0.00 72 1014.3
20260904233043 -17 0.0 0.0 0.00 0.00 0.00 1013.1
20260904231603 32 0 0.0 0.0 0.00 0.00 0.00 64 1014.2
20260904231547 -17 0.0 0.0 0.00 0.00 0.00 1013.0
20260904230110 32 0 0.0 1.6 0.00 0.00 0.00 63 1014.1
20260904230050 -17 0.0 0.0 0.00 0.00 0.00 1013.0
20260904224632 -17 0.0 0.0 0.00 0.00 0.00 1013.0
20260904224612 33 208 0.0 1.6 0.00 0.00 0.00 61 1014.1
20260904223057 33 0 0.0 3.2 0.00 0.00 0.00 62 1014.1
20260904223027 -17 0.0 0.0 0.00 0.00 0.00 1013.0
20260904221604 33 0 0.0 3.2 0.00 0.00 0.00 61 1014.1
20260904221521 -17 0.0 0.0 0.00 0.00 0.00 1012.9
20260904220107 33 0 0.0 8.0 0.00 0.00 0.00 59 1014.1
20260904220017 -17 0.0 0.0 0.00 0.00 0.00 1012.9
20260904214614 -17 0.0 0.0 0.00 0.00 0.00 1012.9
20260904214608 33 0 0.0 4.8 0.00 0.00 0.00 58 1014.1
20260904213110 33 190 0.0 9.7 0.00 0.00 0.00 60 1014.2
20260904213010 -17 0.0 0.0 0.00 0.00 0.00 1013.0
20260904211613 33 0 3.2 11.3 0.00 0.00 0.00 58 1014.3
20260904211510 -17 0.0 0.0 0.00 0.00 0.00 1013.1
20260904210110 34 195 3.2 9.7 0.00 0.00 0.00 57 1014.5
20260904210009 -17 0.0 0.0 0.00 0.00 0.00 1013.3
20260904204601 34 0 0.0 6.4 0.00 0.00 0.00 59 1014.7
20260904204557 -17 0.0 0.0 0.00 0.00 0.00 1013.5
20260904203057 34 341 1.6 8.0 0.00 0.00 0.00 57 1014.8
20260904203055 -17 0.0 0.0 0.00 0.00 0.00 1013.6
20260904201614 34 235 0.0 8.0 0.00 0.00 0.00 59 1015.1
20260904201556 -17 0.0 0.0 0.00 0.00 0.00 1013.9
20260904200106 34 214 0.0 9.7 0.00 0.00 0.00 57 1015.3
20260904200055 -17 0.0 0.0 0.00 0.00 0.00 1014.0
20260904194603 34 0 0.0 9.7 0.00 0.00 0.00 54 1015.3
20260904194548 -17 0.0 0.0 0.00 0.00 0.00 1014.2
20260904193109 34 0 0.0 4.8 0.00 0.00 0.00 56 1015.6
20260904193042 -17 0.0 0.0 0.00 0.00 0.00 1014.3
20260904191621 34 352 1.6 9.7 0.00 0.00 0.00 56 1015.8
20260904191538 -17 0.0 0.0 0.00 0.00 0.00 1014.6
20260904190035 -17 0.0 0.0 0.00 0.00 0.00 1014.7
20260904184609 34 172 0.0 3.2 0.00 0.00 0.00 60 1016.2
20260904184547 -17 0.0 0.0 0.00 0.00 0.00 1015.1
20260904183106 34 299 0.0 12.9 0.00 0.00 0.00 61 1016.5
20260904183039 -17 0.0 0.0 0.00 0.00 0.00 1015.2
20260904181603 34 0 0.0 9.7 0.00 0.00 0.00 60 1016.6
20260904181529 -17 0.0 0.0 0.00 0.00 0.00 1015.3
20260904180058 34 212 1.6 9.7 0.00 0.00 0.00 59 1016.6
20260904180026 -17 0.0 0.0 0.00 0.00 0.00 1015.3
20260904174605 33 257 1.6 11.3 0.00 0.00 0.00 62 1016.8
20260904174537 -17 0.0 0.0 0.00 0.00 0.00 1015.5